Weather History for KELD - May, 2013

Change the Weather History Date:

Friday, May 24, 2013

  Actual Average Record
Temperature  
Mean Temperature 72 °F 73 °F  
Max Temperature 80 °F 84 °F 94 °F (1918)
Min Temperature 64 °F 62 °F 46 °F (1913)
Degree Days  
Heating Degree Days 0 0  
Month to date heating degree days 61 16  
Since 1 July heating degree days 2712 2670  
Cooling Degree Days 7 9  
Month to date cooling degree days 114 147  
Year to date cooling degree days 193 246  
Growing Degree Days 23 (Base 50)    
Moisture  
Dew Point 64 °F    
Average Humidity 78    
Maximum Humidity 97    
Minimum Humidity 58    
Precipitation  
Precipitation 0.00 in 0.17 in 1.10 in (1955)
Month to date precipitation 2.97 3.95  
Year to date precipitation 17.00 21.88  
Snow  
Snow 0.00 in - - ()
Month to date snowfall 0.0  
Since 1 July snowfall 0.1  
Snow Depth 0.00 in    
Sea Level Pressure  
Sea Level Pressure 30.17 in    
Wind  
Wind Speed 8 mph (NE)    
Max Wind Speed 18 mph    
Max Gust Speed 23 mph    
Visibility 10 miles    
Events      
T = Trace of Precipitation, MM = Missing Value Source: NWS Daily Summary

Daily Weather History Graph

Daily Weather History Graph

Search for Another Location

Airport or City:

Trip Planner

Search our weather history database for the weather conditions in past years. The results will help you decide how hot, cold, wet, or windy it might be!

Date:

Astronomy

May. 24, 2013 Rise Set
Actual Time 6:05 AM CDT 8:10 PM CDT
Civil Twilight 5:38 AM CDT 8:38 PM CDT
Nautical Twilight 5:04 AM CDT 9:12 PM CDT
Astronomical Twilight 4:27 AM CDT 9:49 PM CDT
Moon 7:54 PM CDT (5/24) 5:35 AM CDT (5/24)
Length of Visible Light 15h 00m
Length of Day
14h 04m
Full, 100% of the Moon is Illuminated
May 24
Full
May 24
Full
May 31
Last Quarter
Jun 8
New
Jun 16
First Quarter

Hourly Weather History & Observations

Time (CDT) Temp. Heat Index Dew Point Humidity Pressure Visibility Wind Dir Wind Speed Gust Speed Precip Events Conditions
12:53 AM 71.1 °F - 69.1 °F 93% 30.07 in 8.0 mi NNE 3.5 mph - N/A   Clear
1:53 AM 70.0 °F - 68.0 °F 93% 30.07 in 8.0 mi Calm Calm - N/A   Clear
2:53 AM 69.1 °F - 68.0 °F 96% 30.06 in 7.0 mi Calm Calm - N/A   Clear
3:53 AM 70.0 °F - 66.9 °F 90% 30.07 in 10.0 mi NE 3.5 mph - N/A   Overcast
4:53 AM 70.0 °F - 66.9 °F 90% 30.11 in 10.0 mi NE 6.9 mph - N/A   Overcast
5:53 AM 68.0 °F - 64.9 °F 90% 30.13 in 10.0 mi NNE 13.8 mph - N/A   Partly Cloudy
6:53 AM 66.9 °F - 63.0 °F 87% 30.17 in 10.0 mi NNE 8.1 mph - N/A   Clear
7:53 AM 68.0 °F - 62.1 °F 81% 30.20 in 10.0 mi NE 12.7 mph - N/A   Overcast
8:53 AM 70.0 °F - 61.0 °F 73% 30.21 in 10.0 mi NE 11.5 mph - N/A   Clear
9:53 AM 72.0 °F - 60.1 °F 66% 30.23 in 10.0 mi ENE 13.8 mph - N/A   Clear
10:53 AM 73.0 °F - 62.1 °F 68% 30.24 in 10.0 mi NNE 12.7 mph - N/A   Partly Cloudy
11:53 AM 73.9 °F - 62.1 °F 66% 30.25 in 10.0 mi ENE 12.7 mph - N/A   Overcast
12:53 PM 77.0 °F - 63.0 °F 62% 30.23 in 10.0 mi NE 12.7 mph - N/A   Clear
1:53 PM 78.1 °F - 64.0 °F 62% 30.22 in 10.0 mi NE 11.5 mph 16.1 mph N/A   Partly Cloudy
2:53 PM 79.0 °F - 64.0 °F 60% 30.21 in 10.0 mi NE 10.4 mph - N/A   Partly Cloudy
3:53 PM 80.1 °F 81.9 °F 64.9 °F 60% 30.18 in 10.0 mi ENE 10.4 mph - N/A   Scattered Clouds
4:53 PM 80.1 °F 81.9 °F 64.9 °F 60% 30.17 in 10.0 mi NE 10.4 mph - N/A   Scattered Clouds
5:53 PM 77.0 °F - 64.9 °F 66% 30.16 in 10.0 mi NE 11.5 mph - N/A   Overcast
6:53 PM 75.9 °F - 64.0 °F 67% 30.16 in 10.0 mi NE 8.1 mph - N/A   Mostly Cloudy
7:53 PM 73.0 °F - 64.0 °F 73% 30.17 in 10.0 mi ENE 4.6 mph - N/A   Clear
8:53 PM 70.0 °F - 63.0 °F 78% 30.17 in 10.0 mi ENE 5.8 mph - N/A   Clear
9:53 PM 66.9 °F - 62.1 °F 84% 30.19 in 10.0 mi NE 4.6 mph - N/A   Clear
10:53 PM 66.9 °F - 61.0 °F 81% 30.21 in 10.0 mi Calm Calm - N/A   Clear
11:53 PM 64.9 °F - 60.1 °F 84% 30.19 in 10.0 mi NE 3.5 mph - N/A   Clear